Location: Newark
(48.5156°N, 1.8989°W)
Time: 05:10:43
(UTC+00:00)

S-56A Canister/Altair - Visible Passes

Search period start: 20 November 2019 00:00
Search period end: 30 November 2019 00:00
Orbit: 634 x 2498 km, 38.9° (Epoch: 18 November)

Date Brightness Start Highest point End Pass type
(mag) Time Alt. Az. Time Alt. Az. Time Alt. Az.
20 Nov 9.9 16:53:57 10° SW 17:02:46 33° SSE 17:08:59 10° ESE visible
20 Nov 8.9 18:58:49 10° WSW 19:06:25 38° S 19:07:45 34° SSE visible
20 Nov 10.5 21:04:27 10° WSW 21:05:11 12° WSW 21:05:11 12° WSW visible
21 Nov 9.1 18:25:26 10° WSW 18:33:44 40° S 18:36:52 26° SE visible
21 Nov 10.0 20:31:07 10° WSW 20:34:17 20° WSW 20:34:17 20° WSW visible
22 Nov 9.4 17:51:59 10° WSW 18:00:59 42° S 18:05:58 16° ESE visible
22 Nov 9.5 19:57:45 10° WSW 20:03:24 29° SW 20:03:24 29° SW visible
23 Nov 9.6 17:18:28 10° WSW 17:28:12 43° S 17:34:48 10° ESE visible
23 Nov 9.2 19:24:19 10° W 19:31:40 33° SSW 19:32:33 32° S visible
24 Nov 9.8 16:44:56 10° WSW 16:55:20 44° S 17:02:25 10° ESE visible
24 Nov 9.2 18:50:50 10° W 18:59:02 37° SSW 19:01:43 27° SSE visible
24 Nov 10.5 20:57:47 10° WSW 20:59:08 13° WSW 20:59:08 13° WSW visible
25 Nov 9.5 18:17:17 10° WSW 18:26:19 41° SSW 18:30:54 19° SE visible
25 Nov 10.1 20:24:01 10° WSW 20:28:20 19° SW 20:28:20 19° SW visible
26 Nov 9.6 17:43:41 10° WSW 17:53:33 44° SSW 18:00:09 10° ESE visible
26 Nov 9.8 19:50:20 10° W 19:56:32 23° SW 19:57:35 22° SSW visible
27 Nov 9.8 17:10:03 10° WSW 17:20:42 46° S 17:27:55 10° ESE visible
27 Nov 9.8 19:16:40 10° W 19:23:58 27° SSW 19:26:53 20° S visible
28 Nov 9.9 16:36:22 10° WSW 16:47:47 49° S 16:55:32 10° ESE visible
28 Nov 10.0 18:43:00 10° W 18:51:19 31° SSW 18:56:15 15° SSE visible
29 Nov 10.0 18:09:18 10° W 18:18:37 35° SSW 18:25:08 10° SE visible
29 Nov 10.6 20:18:21 10° WSW 20:20:49 12° SW 20:23:04 10° SSW visible
